This is the latest recevied weather packets stored in our database for station/object KC8QDR-1. If no packets are shown the sender has not sent any weather packets the latest 10 day(s).
| Time | Temp. | Humidity | Pressure | Rain* | Wind** | Luminosity | Snow |
|---|---|---|---|---|---|---|---|
| 1777395525 | 17.22° C | 82% | 1018.9 hPa | 0 mm | 1.34 m/s, 203° | - | - |
| 1777394925 | 17.22° C | 82% | 1018.8 hPa | 0 mm | 1.79 m/s, 206° | - | - |
| 1777394326 | 17.22° C | 83% | 1018.7 hPa | 0 mm | 2.68 m/s, 197° | - | - |
| 1777393724 | 16.67° C | 83% | 1018.7 hPa | 0 mm | 1.34 m/s, 193° | - | - |
| 1777393125 | 16.11° C | 83% | 1018.7 hPa | 0 mm | 1.79 m/s, 189° | - | - |
| 1777392525 | 16.11° C | 85% | 1018.7 hPa | 0 mm | 2.24 m/s, 200° | - | - |
| 1777391324 | 15.56° C | 84% | 1018.6 hPa | 0 mm | 2.24 m/s, 186° | - | - |
| 1777390725 | 15.56° C | 84% | 1018.5 hPa | 0 mm | 1.34 m/s, 194° | - | - |
| 1777390124 | 15.56° C | 85% | 1018.4 hPa | 0 mm | 1.79 m/s, 194° | - | - |
| 1777389525 | 15° C | 85% | 1018.3 hPa | 0 mm | 2.68 m/s, 187° | - | - |
| 1777388924 | 15° C | 85% | 1018.4 hPa | 0 mm | 2.68 m/s, 182° | - | - |
| 1777388324 | 15° C | 87% | 1018.3 hPa | 0 mm | 4.02 m/s, 190° | - | - |
| 1777387724 | 15° C | 88% | 1018.4 hPa | 0 mm | 2.68 m/s, 207° | - | - |
| 1777387125 | 14.44° C | 88% | 1018.3 hPa | 0 mm | 4.02 m/s, 186° | - | - |
| 1777386524 | 13.89° C | 89% | 1018.4 hPa | 0 mm | 2.24 m/s, 189° | - | - |
| 1777385925 | 13.89° C | 89% | 1018.3 hPa | 0 mm | 1.79 m/s, 193° | - | - |
| 1777385324 | 13.89° C | 89% | 1017.9 hPa | 0 mm | 1.34 m/s, 186° | - | - |
| 1777384725 | 13.33° C | 89% | 1018.1 hPa | 0 mm | 3.13 m/s, 183° | - | - |
| 1777384125 | 13.33° C | 89% | 1018.5 hPa | 0 mm | 3.13 m/s, 193° | - | - |
| 1777382925 | 13.33° C | 89% | 1018.6 hPa | 0 mm | 2.24 m/s, 189° | - | - |
| 1777382326 | 13.33° C | 90% | 1018.9 hPa | 0 mm | 2.68 m/s, 184° | - | - |
| 1777381724 | 13.33° C | 90% | 1019.2 hPa | 0 mm | 2.68 m/s, 179° | - | - |
| 1777381124 | 13.33° C | 90% | 1019.6 hPa | 0 mm | 2.68 m/s, 183° | - | - |
| 1777380525 | 13.33° C | 90% | 1019.8 hPa | 0 mm | 1.79 m/s, 191° | - | - |
| 1777379925 | 13.33° C | 90% | 1020 hPa | 0 mm | 1.79 m/s, 187° | - | - |
* Rain latest hour (hover to see other rain measurements)
** Current wind speed in m/s (hover to see current wind gust speed)